,,PA_Meas_PMT16A,,PR_Meas_QMR101_102,,RH_Meas_QMH101,,SR_Meas_QMS101,,TA_Meas_QMH101,,GenWind,,GenWind,
time,status,PA,status,PR,status,RH,status,SR,status,TA,status,DirAvg,status,SpdAvg,
2013-01-17, 00:00:04,VALID,917.913,VALID,0,VALID,93.7604,VALID,0,VALID,19.6848,VALID,127,VALID,0,
2013-01-17, 00:01:04,VALID,917.906,VALID,0,VALID,93.5774,VALID,0,VALID,19.6653,VALID,127,VALID,0,
2013-01-17, 00:02:04,VALID,917.922,VALID,0,VALID,93.4707,VALID,0,VALID,19.6218,VALID,128,VALID,0,
2013-01-17, 00:03:04,VALID,917.915,VALID,0,VALID,93.4326,VALID,0,VALID,19.6848,VALID,138,VALID,0,
2013-01-17, 00:04:04,VALID,917.921,VALID,0,VALID,93.3487,VALID,0,VALID,19.7253,VALID,138,VALID,0,
2013-01-17, 00:05:04,VALID,917.896,VALID,0,VALID,93.2191,VALID,0,VALID,19.7448,VALID,138,VALID,0,
2013-01-17, 00:06:04,VALID,917.869,VALID,0,VALID,92.9447,VALID,0,VALID,19.7013,VALID,138,VALID,0,
2013-01-17, 00:07:04,VALID,917.865,VALID,0,VALID,92.8456,VALID,0,VALID,19.8048,VALID,138,VALID,0,
2013-01-17, 00:08:04,VALID,917.878,VALID,0,VALID,92.7693,VALID,0,VALID,19.7613,VALID,138,VALID,0,
2013-01-17, 00:09:04,VALID,917.874,VALID,0,VALID,92.7922,VALID,0,VALID,19.7628,VALID,138,VALID,0,
2013-01-17, 00:10:04,VALID,917.845,VALID,0,VALID,93.0057,VALID,0,VALID,19.7208,VALID,138,VALID,0,
2013-01-17, 00:11:04,VALID,917.854,VALID,0,VALID,93.059,VALID,0,VALID,19.7208,VALID,138,VALID,0,
2013-01-17, 00:12:04,VALID,917.845,VALID,0,VALID,93.0514,VALID,0,VALID,19.7418,VALID,138,VALID,0,
2013-01-17, 00:13:04,VALID,917.826,VALID,0,VALID,93.0819,VALID,0,VALID,19.7628,VALID,138,VALID,0,
2013-01-17, 00:14:04,VALID,917.848,VALID,0,VALID,92.8989,VALID,0,VALID,19.7223,VALID,138,VALID,0,
2013-01-17, 00:15:04,VALID,917.825,VALID,0,VALID,92.7312,VALID,0,VALID,19.7418,VALID,138,VALID,0,
2013-01-17, 00:16:04,VALID,917.855,VALID,0,VALID,92.7236,VALID,0,VALID,19.7823,VALID,138,VALID,0,
2013-01-17, 00:17:04,VALID,917.846,VALID,0,VALID,92.6702,VALID,0,VALID,19.7223,VALID,138,VALID,0,
2013-01-17, 00:18:04,VALID,917.842,VALID,0,VALID,92.7007,VALID,0,VALID,19.7043,VALID,138,VALID,0,
2013-01-17, 00:19:04,VALID,917.825,VALID,0,VALID,92.8913,VALID,0,VALID,19.6668,VALID,138,VALID,0,
2013-01-17, 00:20:04,VALID,917.872,VALID,0,VALID,92.9142,VALID,0,VALID,19.6068,VALID,138,VALID,0,
2013-01-17, 00:21:04,VALID,917.853,VALID,0,VALID,93.0895,VALID,0,VALID,19.5888,VALID,138,VALID,0,
2013-01-17, 00:22:04,VALID,917.857,VALID,0,VALID,93.3792,VALID,0,VALID,19.5288,VALID,138,VALID,0,
2013-01-17, 00:23:04,VALID,917.862,VALID,0,VALID,93.4326,VALID,0,VALID,19.4898,VALID,138,VALID,0,
2013-01-17, 00:24:05,VALID,917.87,VALID,0,VALID,93.8138,VALID,0,VALID,19.4898,VALID,138,VALID,0,
2013-01-17, 00:25:05,VALID,917.863,VALID,0,VALID,94.0272,VALID,0,VALID,19.5093,VALID,138,VALID,0,
2013-01-17, 00:26:05,VALID,917.82,VALID,0,VALID,94.1568,VALID,0,VALID,19.5093,VALID,118,VALID,0,
2013-01-17, 00:27:05,VALID,917.821,VALID,0,VALID,94.1797,VALID,0,VALID,19.5303,VALID,118,VALID,0,
2013-01-17, 00:28:05,VALID,917.839,VALID,0,VALID,94.2178,VALID,0,VALID,19.4913,VALID,118,VALID,0,
2013-01-17, 00:29:05,VALID,917.848,VALID,0,VALID,94.233,VALID,0,VALID,19.4118,VALID,118,VALID,0,
2013-01-17, 00:30:05,VALID,917.848,VALID,0,VALID,94.2864,VALID,0,VALID,19.3728,VALID,121,VALID,0,
2013-01-17, 00:31:05,VALID,917.851,VALID,0,VALID,94.4389,VALID,0,VALID,19.3338,VALID,113,VALID,0,
2013-01-17, 00:32:05,VALID,917.817,VALID,0,VALID,94.6828,VALID,0,VALID,19.3338,VALID,114,VALID,0,
2013-01-17, 00:33:05,VALID,917.845,VALID,0,VALID,94.8429,VALID,0,VALID,19.3143,VALID,104,VALID,0,
2013-01-17, 00:34:05,VALID,917.862,VALID,0,VALID,94.9268,VALID,0,VALID,19.2948,VALID,106,VALID,0,
2013-01-17, 00:35:05,VALID,917.819,VALID,0,VALID,95.0183,VALID,0,VALID,19.2948,VALID,102,VALID,0,
2013-01-17, 00:36:05,VALID,917.837,VALID,0,VALID,95.1174,VALID,0,VALID,19.2933,VALID,102,VALID,0,
2013-01-17, 00:37:05,VALID,917.799,VALID,0,VALID,95.0792,VALID,0,VALID,19.2738,VALID,102,VALID,0,
2013-01-17, 00:38:05,VALID,917.808,VALID,0,VALID,95.1631,VALID,0,VALID,19.2738,VALID,102,VALID,0,
2013-01-17, 00:39:05,VALID,917.815,VALID,0,VALID,95.1326,VALID,0,VALID,19.2933,VALID,102,VALID,0,
2013-01-17, 00:40:05,VALID,917.781,VALID,0,VALID,95.125,VALID,0,VALID,19.2738,VALID,103,VALID,0,
2013-01-17, 00:41:05,VALID,917.799,VALID,0,VALID,95.1174,VALID,0,VALID,19.3143,VALID,113,VALID,0,
2013-01-17, 00:42:05,VALID,917.808,VALID,0,VALID,95.125,VALID,0,VALID,19.2933,VALID,113,VALID,0,
2013-01-17, 00:43:05,VALID,917.815,VALID,0,VALID,95.1021,VALID,0,VALID,19.3128,VALID,114,VALID,0,
2013-01-17, 00:44:05,VALID,917.846,VALID,0,VALID,94.942,VALID,0,VALID,19.3338,VALID,128,VALID,0,
2013-01-17, 00:45:05,VALID,917.813,VALID,0,VALID,94.7972,VALID,0,VALID,19.3338,VALID,129,VALID,0,
2013-01-17, 00:46:05,VALID,917.831,VALID,0,VALID,94.5227,VALID,0,VALID,19.3338,VALID,129,VALID,0,
2013-01-17, 00:47:05,VALID,917.84,VALID,0,VALID,94.3398,VALID,0,VALID,19.3533,VALID,140,VALID,0,
2013-01-17, 00:48:05,VALID,917.843,VALID,0,VALID,94.0882,VALID,0,VALID,19.3728,VALID,139,VALID,0,
2013-01-17, 00:49:05,VALID,917.82,VALID,0,VALID,93.8138,VALID,0,VALID,19.3518,VALID,133,VALID,0,
2013-01-17, 00:50:05,VALID,917.791,VALID,0,VALID,93.6232,VALID,0,VALID,19.3923,VALID,131,VALID,0,
2013-01-17, 00:51:05,VALID,917.807,VALID,0,VALID,93.6308,VALID,0,VALID,19.4118,VALID,131,VALID,0,
2013-01-17, 00:52:05,VALID,917.789,VALID,0,VALID,93.4707,VALID,0,VALID,19.3923,VALID,131,VALID,0,
2013-01-17, 00:53:05,VALID,917.781,VALID,0,VALID,93.4783,VALID,0,VALID,19.3908,VALID,131,VALID,0,
2013-01-17, 00:54:05,VALID,917.773,VALID,0,VALID,93.3487,VALID,0,VALID,19.4103,VALID,131,VALID,0,
2013-01-17, 00:55:05,VALID,917.806,VALID,0,VALID,93.0743,VALID,0,VALID,19.4718,VALID,131,VALID,0,
2013-01-17, 00:56:05,VALID,917.789,VALID,0,VALID,92.9142,VALID,0,VALID,19.5288,VALID,131,VALID,0,
2013-01-17, 00:57:05,VALID,917.791,VALID,0,VALID,92.6397,VALID,0,VALID,19.5873,VALID,131,VALID,0,
2013-01-17, 00:58:05,VALID,917.771,VALID,0,VALID,92.3272,VALID,0,VALID,19.5858,VALID,131,VALID,0,
2013-01-17, 00:59:05,VALID,917.765,VALID,0,VALID,92.0985,VALID,0,VALID,19.6053,VALID,131,VALID,0,
2013-01-17, 01:00:05,VALID,917.762,VALID,0,VALID,91.8622,VALID,0,VALID,19.6248,VALID,131,VALID,0,
2013-01-17, 01:01:05,VALID,917.734,VALID,0,VALID,91.7631,VALID,0,VALID,19.6248,VALID,167,VALID,0,
2013-01-17, 01:02:05,VALID,917.753,VALID,0,VALID,91.7631,VALID,0,VALID,19.6458,VALID,167,VALID,0,
2013-01-17, 01:03:05,VALID,917.719,VALID,0,VALID,91.5344,VALID,0,VALID,19.6458,VALID,167,VALID,0,
2013-01-17, 01:04:05,VALID,917.7,VALID,0,VALID,91.4124,VALID,0,VALID,19.6068,VALID,167,VALID,0,
2013-01-17, 01:05:05,VALID,917.715,VALID,0,VALID,91.5648,VALID,0,VALID,19.5483,VALID,167,VALID,0,
2013-01-17, 01:06:05,VALID,917.685,VALID,0,VALID,92.0451,VALID,0,VALID,19.4898,VALID,148,VALID,0,
2013-01-17, 01:07:05,VALID,917.692,VALID,0,VALID,92.4644,VALID,0,VALID,19.4298,VALID,132,VALID,0,
2013-01-17, 01:08:05,VALID,917.706,VALID,0,VALID,92.777,VALID,0,VALID,19.4118,VALID,132,VALID,0,
2013-01-17, 01:09:05,VALID,917.677,VALID,0,VALID,92.9523,VALID,0,VALID,19.3518,VALID,132,VALID,0,
2013-01-17, 01:10:05,VALID,917.674,VALID,0,VALID,92.9752,VALID,0,VALID,19.3128,VALID,132,VALID,0,
2013-01-17, 01:11:05,VALID,917.65,VALID,0,VALID,92.9523,VALID,0,VALID,19.3338,VALID,132,VALID,0,
2013-01-17, 01:12:05,VALID,917.672,VALID,0,VALID,92.8761,VALID,0,VALID,19.3533,VALID,132,VALID,0,
2013-01-17, 01:13:05,VALID,917.665,VALID,0,VALID,92.7541,VALID,0,VALID,19.3728,VALID,132,VALID,0,
2013-01-17, 01:14:05,VALID,917.67,VALID,0,VALID,92.716,VALID,0,VALID,19.3728,VALID,132,VALID,0,
2013-01-17, 01:15:05,VALID,917.653,VALID,0,VALID,92.8685,VALID,0,VALID,19.3533,VALID,130,VALID,0,
2013-01-17, 01:16:05,VALID,917.63,VALID,0,VALID,92.9447,VALID,0,VALID,19.3533,VALID,122,VALID,0,
2013-01-17, 01:17:05,VALID,917.618,VALID,0,VALID,92.9447,VALID,0,VALID,19.3352,VALID,130,VALID,0,
2013-01-17, 01:18:05,VALID,917.593,VALID,0,VALID,93.2039,VALID,0,VALID,19.2948,VALID,128,VALID,0,
2013-01-17, 01:19:05,VALID,917.553,VALID,0,VALID,93.303,VALID,0,VALID,19.2543,VALID,133,VALID,0,
2013-01-17, 01:20:05,VALID,917.542,VALID,0,VALID,93.5012,VALID,0,VALID,19.2377,VALID,138,VALID,0,
2013-01-17, 01:21:05,VALID,917.502,VALID,0,VALID,93.768,VALID,0,VALID,19.1987,VALID,123,VALID,0,
2013-01-17, 01:22:05,VALID,917.494,VALID,0,VALID,94.0272,VALID,0,VALID,19.1402,VALID,116,VALID,0,
2013-01-17, 01:23:05,VALID,917.475,VALID,0,VALID,94.294,VALID,0,VALID,19.1012,VALID,126,VALID,0,
2013-01-17, 01:24:05,VALID,917.499,VALID,0,VALID,94.5456,VALID,0,VALID,19.0413,VALID,132,VALID,0,
2013-01-17, 01:25:05,VALID,917.476,VALID,0,VALID,94.6905,VALID,0,VALID,19.0218,VALID,145,VALID,0,
2013-01-17, 01:26:05,VALID,917.455,VALID,0,VALID,94.8277,VALID,0,VALID,19.0023,VALID,137,VALID,0,
2013-01-17, 01:27:05,VALID,917.441,VALID,0,VALID,94.9725,VALID,0,VALID,19.0218,VALID,156,VALID,0,
2013-01-17, 01:28:05,VALID,917.422,VALID,0,VALID,95.125,VALID,0,VALID,19.0203,VALID,162,VALID,0,
2013-01-17, 01:29:05,VALID,917.429,VALID,0,VALID,95.2088,VALID,0,VALID,19.0608,VALID,168,VALID,0,
2013-01-17, 01:30:05,VALID,917.394,VALID,0,VALID,95.2698,VALID,0,VALID,19.0608,VALID,172,VALID,0,
2013-01-17, 01:31:05,VALID,917.386,VALID,0,VALID,95.3537,VALID,0,VALID,19.0608,VALID,162,VALID,0,
2013-01-17, 01:32:05,VALID,917.363,VALID,0,VALID,95.3842,VALID,0,VALID,19.0413,VALID,156,VALID,0,
2013-01-17, 01:33:05,VALID,917.352,VALID,0,VALID,95.4223,VALID,0,VALID,19.0622,VALID,164,VALID,0,
2013-01-17, 01:34:05,VALID,917.352,VALID,0,VALID,95.4299,VALID,0,VALID,19.0622,VALID,154,VALID,0,
2013-01-17, 01:35:05,VALID,917.309,VALID,0,VALID,95.3994,VALID,0,VALID,19.0203,VALID,151,VALID,0,
2013-01-17, 01:36:05,VALID,917.329,VALID,0,VALID,95.1783,VALID,0,VALID,19.0413,VALID,135,VALID,0,
2013-01-17, 01:37:05,VALID,917.307,VALID,0,VALID,94.9496,VALID,0,VALID,19.0817,VALID,125,VALID,0,
2013-01-17, 01:38:05,VALID,917.281,VALID,0,VALID,94.5837,VALID,0,VALID,19.0803,VALID,139,VALID,0,
2013-01-17, 01:39:05,VALID,917.307,VALID,0,VALID,94.1034,VALID,0,VALID,19.1807,VALID,128,VALID,0,
2013-01-17, 01:40:05,VALID,917.275,VALID,0,VALID,93.5393,VALID,0,VALID,19.2392,VALID,126,VALID,0,
2013-01-17, 01:41:05,VALID,917.287,VALID,0,VALID,92.7998,VALID,0,VALID,19.2767,VALID,117,VALID,0,
2013-01-17, 01:42:05,VALID,917.259,VALID,0,VALID,92.2738,VALID,0,VALID,19.2948,VALID,107,VALID,0,
2013-01-17, 01:43:05,VALID,917.273,VALID,0,VALID,91.9536,VALID,0,VALID,19.3143,VALID,108,VALID,0,
2013-01-17, 01:44:05,VALID,917.237,VALID,0,VALID,91.8469,VALID,0,VALID,19.3143,VALID,108,VALID,0,
2013-01-17, 01:45:05,VALID,917.227,VALID,0,VALID,91.542,VALID,0,VALID,19.2933,VALID,108,VALID,0,
2013-01-17, 01:46:05,VALID,917.221,VALID,0,VALID,91.42,VALID,0,VALID,19.3367,VALID,88,VALID,0,
2013-01-17, 01:47:05,VALID,917.236,VALID,0,VALID,91.3438,VALID,0,VALID,19.2782,VALID,80,VALID,0,
2013-01-17, 01:48:05,VALID,917.239,VALID,0,VALID,91.7707,VALID,0,VALID,19.1359,VALID,81,VALID,0,
2013-01-17, 01:49:05,VALID,917.24,VALID,0,VALID,91.946,VALID,0,VALID,19.1583,VALID,81,VALID,0,
2013-01-17, 01:50:05,VALID,917.252,VALID,0,VALID,92.2357,VALID,0,VALID,19.1388,VALID,80,VALID,0,
2013-01-17, 01:51:05,VALID,917.26,VALID,0,VALID,92.3348,VALID,0,VALID,19.1807,VALID,86,VALID,0,
2013-01-17, 01:52:05,VALID,917.279,VALID,0,VALID,92.3806,VALID,0,VALID,19.1973,VALID,103,VALID,0,
2013-01-17, 01:53:05,VALID,917.269,VALID,0,VALID,92.3196,VALID,0,VALID,19.2363,VALID,113,VALID,0,
2013-01-17, 01:54:05,VALID,917.266,VALID,0,VALID,92.0375,VALID,0,VALID,19.3143,VALID,120,VALID,0,
2013-01-17, 01:55:05,VALID,917.254,VALID,0,VALID,91.7173,VALID,0,VALID,19.3533,VALID,120,VALID,0,
2013-01-17, 01:56:05,VALID,917.205,VALID,0,VALID,91.4734,VALID,0,VALID,19.3533,VALID,120,VALID,0,
2013-01-17, 01:57:05,VALID,917.222,VALID,0,VALID,91.298,VALID,0,VALID,19.3547,VALID,120,VALID,0,
2013-01-17, 01:58:05,VALID,917.202,VALID,0,VALID,91.2447,VALID,0,VALID,19.2948,VALID,120,VALID,0,
2013-01-17, 01:59:05,VALID,917.168,VALID,0,VALID,91.3133,VALID,0,VALID,19.2767,VALID,120,VALID,0,
2013-01-17, 02:00:05,VALID,917.118,VALID,0,VALID,91.7097,VALID,0,VALID,19.1973,VALID,120,VALID,0,
2013-01-17, 02:01:05,VALID,917.151,VALID,0,VALID,91.8774,VALID,0,VALID,19.1973,VALID,120,VALID,0,
2013-01-17, 02:02:05,VALID,917.156,VALID,0,VALID,91.885,VALID,0,VALID,19.1763,VALID,117,VALID,0,
2013-01-17, 02:03:05,VALID,917.154,VALID,0,VALID,91.8012,VALID,0,VALID,19.1583,VALID,115,VALID,0,
2013-01-17, 02:04:05,VALID,917.189,VALID,0,VALID,91.8012,VALID,0,VALID,19.0803,VALID,115,VALID,0,
2013-01-17, 02:05:05,VALID,917.18,VALID,0,VALID,92.2357,VALID,0,VALID,19.0637,VALID,112,VALID,0,
2013-01-17, 02:06:05,VALID,917.157,VALID,0,VALID,92.3806,VALID,0,VALID,19.0622,VALID,93,VALID,0,
2013-01-17, 02:07:05,VALID,917.164,VALID,0,VALID,92.2814,VALID,0,VALID,19.0608,VALID,109,VALID,0,
2013-01-17, 02:08:05,VALID,917.168,VALID,0,VALID,92.2281,VALID,0,VALID,19.0803,VALID,109,VALID,0,
2013-01-17, 02:09:05,VALID,917.177,VALID,0,VALID,92.2281,VALID,0,VALID,19.0803,VALID,109,VALID,0,
2013-01-17, 02:10:05,VALID,917.185,VALID,0,VALID,92.4187,VALID,0,VALID,19.0608,VALID,109,VALID,0,
2013-01-17, 02:11:05,VALID,917.211,VALID,0,VALID,92.5864,VALID,0,VALID,19.0803,VALID,109,VALID,0,
2013-01-17, 02:12:05,VALID,917.191,VALID,0,VALID,92.7389,VALID,0,VALID,19.0998,VALID,109,VALID,0,
2013-01-17, 02:13:05,VALID,917.179,VALID,0,VALID,92.8989,VALID,0,VALID,19.1388,VALID,109,VALID,0,
2013-01-17, 02:14:05,VALID,917.191,VALID,0,VALID,92.9142,VALID,0,VALID,19.1402,VALID,109,VALID,0,
2013-01-17, 02:15:05,VALID,917.213,VALID,0,VALID,92.7998,VALID,0,VALID,19.1388,VALID,109,VALID,0,
2013-01-17, 02:16:05,VALID,917.174,VALID,0,VALID,92.7541,VALID,0,VALID,19.1388,VALID,110,VALID,0,
2013-01-17, 02:17:05,VALID,917.228,VALID,0,VALID,92.9828,VALID,0,VALID,19.1987,VALID,109,VALID,0,
2013-01-17, 02:18:05,VALID,917.222,VALID,0,VALID,93.0514,VALID,0,VALID,19.2182,VALID,109,VALID,0,
2013-01-17, 02:19:05,VALID,917.219,VALID,0,VALID,93.0743,VALID,0,VALID,19.1973,VALID,109,VALID,0,
2013-01-17, 02:20:05,VALID,917.244,VALID,0,VALID,93.0057,VALID,0,VALID,19.2587,VALID,109,VALID,0,
2013-01-17, 02:21:05,VALID,917.235,VALID,0,VALID,92.9752,VALID,0,VALID,19.1973,VALID,109,VALID,0,
2013-01-17, 02:22:05,VALID,917.21,VALID,0,VALID,93.0667,VALID,0,VALID,19.1778,VALID,109,VALID,0,
2013-01-17, 02:23:05,VALID,917.226,VALID,0,VALID,93.2649,VALID,0.107441,VALID,19.1778,VALID,109,VALID,0,
2013-01-17, 02:24:05,VALID,917.239,VALID,0,VALID,93.2877,VALID,0,VALID,19.1568,VALID,109,VALID,0,
2013-01-17, 02:25:05,VALID,917.205,VALID,0,VALID,93.3335,VALID,0,VALID,19.1973,VALID,109,VALID,0,
2013-01-17, 02:26:05,VALID,917.192,VALID,0,VALID,93.2268,VALID,0,VALID,19.1778,VALID,109,VALID,0,
2013-01-17, 02:27:05,VALID,917.162,VALID,0,VALID,93.0819,VALID,0,VALID,19.1778,VALID,109,VALID,0,
2013-01-17, 02:28:05,VALID,917.171,VALID,0,VALID,93.2877,VALID,0,VALID,19.1388,VALID,116,VALID,0,
2013-01-17, 02:29:05,VALID,917.137,VALID,0,VALID,93.4631,VALID,0,VALID,19.1193,VALID,116,VALID,0,
2013-01-17, 02:30:05,VALID,917.143,VALID,0,VALID,93.7147,VALID,0,VALID,19.1193,VALID,116,VALID,0,
2013-01-17, 02:31:05,VALID,917.153,VALID,0,VALID,93.9434,VALID,0,VALID,19.1193,VALID,116,VALID,0,
2013-01-17, 02:32:05,VALID,917.148,VALID,0,VALID,94.1492,VALID,0,VALID,19.1193,VALID,116,VALID,0,
2013-01-17, 02:33:05,VALID,917.13,VALID,0,VALID,94.3626,VALID,0,VALID,19.1778,VALID,116,VALID,0,
2013-01-17, 02:34:05,VALID,917.138,VALID,0,VALID,94.3779,VALID,0,VALID,19.2168,VALID,112,VALID,0,
2013-01-17, 02:35:05,VALID,917.129,VALID,0,VALID,94.3779,VALID,0,VALID,19.2558,VALID,137,VALID,0,
2013-01-17, 02:36:05,VALID,917.118,VALID,0,VALID,94.2407,VALID,0,VALID,19.2543,VALID,115,VALID,0,
2013-01-17, 02:37:05,VALID,917.109,VALID,0,VALID,94.0806,VALID,0,VALID,19.2753,VALID,115,VALID,0,
2013-01-17, 02:38:05,VALID,917.064,VALID,0,VALID,93.9662,VALID,0,VALID,19.2948,VALID,142,VALID,0,
2013-01-17, 02:39:05,VALID,917.06,VALID,0,VALID,93.8443,VALID,0,VALID,19.3143,VALID,148,VALID,0,
2013-01-17, 02:40:05,VALID,917.052,VALID,0,VALID,93.6918,VALID,0,VALID,19.3143,VALID,148,VALID,0,
2013-01-17, 02:41:05,VALID,917.032,VALID,0,VALID,93.6537,VALID,0,VALID,19.3533,VALID,148,VALID,0,
2013-01-17, 02:42:05,VALID,917.053,VALID,0,VALID,93.5088,VALID,0,VALID,19.3728,VALID,148,VALID,0,
2013-01-17, 02:43:05,VALID,917.051,VALID,0,VALID,93.3868,VALID,0,VALID,19.4118,VALID,148,VALID,0,
2013-01-17, 02:44:05,VALID,917.075,VALID,0,VALID,93.1276,VALID,0,VALID,19.4327,VALID,148,VALID,0,
2013-01-17, 02:45:05,VALID,917.069,VALID,0,VALID,92.9523,VALID,0,VALID,19.4313,VALID,148,VALID,0,
2013-01-17, 02:46:05,VALID,917.072,VALID,0,VALID,92.7998,VALID,0,VALID,19.4118,VALID,148,VALID,0,
2013-01-17, 02:47:05,VALID,917.069,VALID,0,VALID,92.7541,VALID,0,VALID,19.4132,VALID,148,VALID,0,
2013-01-17, 02:48:05,VALID,917.045,VALID,0,VALID,92.7998,VALID,0,VALID,19.3533,VALID,148,VALID,0,
2013-01-17, 02:49:05,VALID,917.051,VALID,0,VALID,92.9371,VALID,0,VALID,19.3338,VALID,148,VALID,0,
2013-01-17, 02:50:05,VALID,917.023,VALID,0,VALID,93.12,VALID,0,VALID,19.2948,VALID,148,VALID,0,
2013-01-17, 02:51:05,VALID,917.03,VALID,0,VALID,93.2115,VALID,0,VALID,19.2543,VALID,148,VALID,0,
2013-01-17, 02:52:05,VALID,917.007,VALID,0,VALID,93.181,VALID,0,VALID,19.2363,VALID,148,VALID,0,
2013-01-17, 02:53:05,VALID,916.98,VALID,0,VALID,93.3182,VALID,0,VALID,19.1973,VALID,148,VALID,0,
2013-01-17, 02:54:05,VALID,916.983,VALID,0,VALID,93.4631,VALID,0,VALID,19.1583,VALID,128,VALID,0,
2013-01-17, 02:55:05,VALID,916.933,VALID,0,VALID,93.5469,VALID,0,VALID,19.1193,VALID,128,VALID,0,
2013-01-17, 02:56:05,VALID,916.936,VALID,0,VALID,93.5164,VALID,0,VALID,19.0608,VALID,128,VALID,0,
2013-01-17, 02:57:05,VALID,916.924,VALID,0,VALID,93.646,VALID,0,VALID,19.0413,VALID,139,VALID,0,
2013-01-17, 02:58:05,VALID,916.898,VALID,0,VALID,93.7756,VALID,0,VALID,19.0218,VALID,147,VALID,0,
2013-01-17, 02:59:05,VALID,916.872,VALID,0,VALID,93.8671,VALID,0,VALID,19.0023,VALID,144,VALID,0,
2013-01-17, 03:00:05,VALID,916.858,VALID,0,VALID,93.8671,VALID,0,VALID,18.9633,VALID,142,VALID,0,
2013-01-17, 03:01:05,VALID,916.831,VALID,0,VALID,93.951,VALID,0,VALID,18.9842,VALID,143,VALID,0,
2013-01-17, 03:02:05,VALID,916.821,VALID,0,VALID,94.0196,VALID,0,VALID,18.9633,VALID,153,VALID,0,
2013-01-17, 03:03:05,VALID,916.822,VALID,0,VALID,94.0958,VALID,0,VALID,18.9633,VALID,146,VALID,0,
2013-01-17, 03:04:05,VALID,916.805,VALID,0,VALID,94.1187,VALID,0,VALID,18.9633,VALID,172,VALID,0,
2013-01-17, 03:05:04,VALID,916.831,VALID,0,VALID,94.1568,VALID,0,VALID,18.9842,VALID,168,VALID,0,
2013-01-17, 03:06:04,VALID,916.809,VALID,0,VALID,94.2026,VALID,0,VALID,18.9633,VALID,168,VALID,0,
2013-01-17, 03:07:04,VALID,916.799,VALID,0,VALID,94.2483,VALID,0,VALID,18.9633,VALID,151,VALID,0,
2013-01-17, 03:08:04,VALID,916.822,VALID,0,VALID,94.0958,VALID,0,VALID,18.9048,VALID,142,VALID,0,
2013-01-17, 03:09:04,VALID,916.831,VALID,0,VALID,94.1873,VALID,0,VALID,18.9048,VALID,152,VALID,0,
2013-01-17, 03:10:04,VALID,916.848,VALID,0,VALID,94.3474,VALID,0,VALID,18.9048,VALID,163,VALID,0,
2013-01-17, 03:11:04,VALID,916.85,VALID,0,VALID,94.477,VALID,0,VALID,18.9257,VALID,156,VALID,0,
2013-01-17, 03:12:04,VALID,916.846,VALID,0,VALID,94.5304,VALID,0,VALID,18.9243,VALID,169,VALID,0,
2013-01-17, 03:13:04,VALID,916.829,VALID,0,VALID,94.5075,VALID,0,VALID,18.9257,VALID,170,VALID,0,
2013-01-17, 03:14:04,VALID,916.873,VALID,0,VALID,94.4922,VALID,0,VALID,18.9243,VALID,172,VALID,0,
2013-01-17, 03:15:04,VALID,916.839,VALID,0,VALID,94.4008,VALID,0,VALID,18.9438,VALID,174,VALID,0,
2013-01-17, 03:16:04,VALID,916.84,VALID,0,VALID,94.3321,VALID,0,VALID,18.9647,VALID,163,VALID,0,
2013-01-17, 03:17:04,VALID,916.835,VALID,0,VALID,94.2559,VALID,0,VALID,18.9647,VALID,161,VALID,0,
2013-01-17, 03:18:04,VALID,916.857,VALID,0,VALID,94.1797,VALID,0,VALID,18.9633,VALID,165,VALID,0,
2013-01-17, 03:19:04,VALID,916.881,VALID,0,VALID,93.9967,VALID,0,VALID,18.9828,VALID,100,VALID,0,
2013-01-17, 03:20:04,VALID,916.878,VALID,0,VALID,93.8976,VALID,0,VALID,19.0037,VALID,163,VALID,0,
2013-01-17, 03:21:04,VALID,916.871,VALID,0,VALID,93.7909,VALID,0,VALID,19.0232,VALID,113,VALID,0,
2013-01-17, 03:22:04,VALID,916.859,VALID,0,VALID,93.5851,VALID,0,VALID,18.9633,VALID,119,VALID,0,
2013-01-17, 03:23:04,VALID,916.841,VALID,0,VALID,93.5546,VALID,0,VALID,18.9424,VALID,141,VALID,0,
2013-01-17, 03:24:04,VALID,916.824,VALID,0,VALID,93.5851,VALID,0,VALID,18.9633,VALID,142,VALID,0,
2013-01-17, 03:25:04,VALID,916.781,VALID,0,VALID,93.6918,VALID,0,VALID,18.9828,VALID,148,VALID,0,
2013-01-17, 03:26:04,VALID,916.796,VALID,0,VALID,93.6308,VALID,0,VALID,18.9828,VALID,128,VALID,0,
2013-01-17, 03:27:04,VALID,916.766,VALID,0,VALID,93.6155,VALID,0,VALID,18.9633,VALID,128,VALID,0,
2013-01-17, 03:28:04,VALID,916.76,VALID,0,VALID,93.6308,VALID,0,VALID,18.9842,VALID,161,VALID,0,
2013-01-17, 03:29:04,VALID,916.773,VALID,0,VALID,93.6994,VALID,0,VALID,18.9633,VALID,161,VALID,0,
2013-01-17, 03:30:04,VALID,916.786,VALID,0,VALID,93.707,VALID,0,VALID,19.0023,VALID,161,VALID,0,
2013-01-17, 03:31:04,VALID,916.769,VALID,0,VALID,93.6003,VALID,0,VALID,19.0427,VALID,158,VALID,0,
2013-01-17, 03:32:04,VALID,916.783,VALID,0,VALID,93.5546,VALID,0,VALID,19.0608,VALID,171,VALID,0,
2013-01-17, 03:33:04,VALID,916.799,VALID,0,VALID,93.5546,VALID,0,VALID,19.1193,VALID,144,VALID,0,
2013-01-17, 03:34:04,VALID,916.807,VALID,0,VALID,93.303,VALID,0,VALID,19.1583,VALID,132,VALID,0,
2013-01-17, 03:35:04,VALID,916.802,VALID,0,VALID,93.1276,VALID,0,VALID,19.1987,VALID,132,VALID,0,
2013-01-17, 03:36:04,VALID,916.833,VALID,0,VALID,92.9142,VALID,0,VALID,19.2153,VALID,151,VALID,0,
2013-01-17, 03:37:04,VALID,916.82,VALID,0,VALID,92.6321,VALID,0,VALID,19.2753,VALID,129,VALID,0,
2013-01-17, 03:38:04,VALID,916.802,VALID,0,VALID,92.5254,VALID,0,VALID,19.2948,VALID,117,VALID,0,
2013-01-17, 03:39:04,VALID,916.799,VALID,0,VALID,92.3501,VALID,0,VALID,19.2738,VALID,117,VALID,0,
2013-01-17, 03:40:04,VALID,916.808,VALID,0,VALID,92.2891,VALID,0,VALID,19.3157,VALID,136,VALID,0,
2013-01-17, 03:41:04,VALID,916.783,VALID,0,VALID,92.1976,VALID,0,VALID,19.3157,VALID,125,VALID,0,
2013-01-17, 03:42:04,VALID,916.818,VALID,0,VALID,92.1137,VALID,0,VALID,19.2948,VALID,126,VALID,0,
2013-01-17, 03:43:04,VALID,916.794,VALID,0,VALID,92.1976,VALID,0,VALID,19.2948,VALID,148,VALID,0,
2013-01-17, 03:44:04,VALID,916.803,VALID,0,VALID,92.1519,VALID,0,VALID,19.2753,VALID,132,VALID,0,
2013-01-17, 03:45:04,VALID,916.778,VALID,0,VALID,92.2662,VALID,0,VALID,19.2558,VALID,131,VALID,0,
2013-01-17, 03:46:04,VALID,916.755,VALID,0,VALID,92.4492,VALID,0,VALID,19.2363,VALID,117,VALID,0,
2013-01-17, 03:47:04,VALID,916.759,VALID,0,VALID,92.5254,VALID,0,VALID,19.2363,VALID,127,VALID,0,
2013-01-17, 03:48:04,VALID,916.751,VALID,0,VALID,92.594,VALID,0,VALID,19.2363,VALID,130,VALID,0,
2013-01-17, 03:49:04,VALID,916.746,VALID,0,VALID,92.6245,VALID,0,VALID,19.2363,VALID,130,VALID,0,
2013-01-17, 03:50:04,VALID,916.729,VALID,0,VALID,92.594,VALID,0,VALID,19.2363,VALID,130,VALID,0,
2013-01-17, 03:51:04,VALID,916.687,VALID,0,VALID,92.4339,VALID,0,VALID,19.2182,VALID,130,VALID,0,
2013-01-17, 03:52:04,VALID,916.727,VALID,0,VALID,92.5406,VALID,0,VALID,19.1583,VALID,130,VALID,0,
2013-01-17, 03:53:04,VALID,916.682,VALID,0,VALID,92.838,VALID,0,VALID,19.1388,VALID,130,VALID,0,
2013-01-17, 03:54:04,VALID,916.671,VALID,0,VALID,92.9066,VALID,0,VALID,19.0788,VALID,130,VALID,0,
2013-01-17, 03:55:04,VALID,916.696,VALID,0,VALID,92.9904,VALID,0,VALID,19.0803,VALID,130,VALID,0,
2013-01-17, 03:56:04,VALID,916.655,VALID,0,VALID,93.0895,VALID,0,VALID,19.0427,VALID,130,VALID,0,
2013-01-17, 03:57:04,VALID,916.683,VALID,0,VALID,93.2191,VALID,0,VALID,19.0218,VALID,128,VALID,0,
2013-01-17, 03:58:04,VALID,916.651,VALID,0,VALID,93.2115,VALID,0,VALID,19.0023,VALID,147,VALID,0,
2013-01-17, 03:59:04,VALID,916.651,VALID,0,VALID,93.3182,VALID,0,VALID,18.9842,VALID,126,VALID,0,
2013-01-17, 04:00:04,VALID,916.655,VALID,0,VALID,93.4097,VALID,0,VALID,18.9243,VALID,139,VALID,0,